This demonstration page uses our WeatherBlox Daily Observations layout. Learn more.

Left ArrowRight Arrow

Hourly Observations for March 11, 2021

Temp ( °F °C ) Dew Point ( °F °C ) Humidity (%) Winds ( mph kmh ) Pressure ( in mb ) Visibility ( mi km ) Precip ( " mm )
12:53 am 00:53 Clear 50 10 39 3.9 66 66 Calm 30.37 1028 10 16 0.00 0.00
1:53 am 01:53 Clear 48 8.9 38 3.3 68 68 Calm 30.36 1028 10 16 0.00 0.00
2:53 am 02:53 Clear 45 7.2 38 3.3 77 77 Calm 30.36 1028 10 16 0.00 0.00
3:53 am 03:53 Clear 44 6.7 39 3.9 83 83 WNW 3 6 30.36 1028 10 16 0.00 0.00
4:53 am 04:53 Clear 50 10 42 5.6 74 74 Calm 30.37 1029 10 16 0.00 0.00
5:53 am 05:53 Clear 47 8.3 41 5 80 80 Calm 30.38 1029 10 16 0.00 0.00
6:53 am 06:53 Sunny 49 9.4 43 6.1 80 80 Calm 30.40 1029 10 16 0.00 0.00
7:53 am 07:53 Sunny 51 10.6 44 6.7 77 77 Calm 30.41 1030 10 16 0.00 0.00
8:53 am 08:53 Sunny 56 13.3 48 8.9 75 75 Calm 30.41 1030 10 16 0.00 0.00
9:53 am 09:53 Sunny 63 17.2 47 8.3 56 56 SW 7 11 30.41 1030 10 16 0.00 0.00
10:53 am 10:53 Sunny 65 18.3 47 8.3 52 52 WSW 7 11 30.42 1030 10 16 0.00 0.00
11:53 am 11:53 Sunny 68 20 47 8.3 47 47 VRB 5 7 30.41 1030 10 16 0.00 0.00
12:53 pm 12:53 Sunny 69 20.6 46 7.8 44 44 VRB 3 6 30.39 1029 10 16 0.00 0.00
1:53 pm 13:53 Sunny 71 21.7 45 7.2 39 39 VRB 7 11 30.37 1028 10 16 0.00 0.00
2:53 pm 14:53 Sunny 71 21.7 45 7.2 39 39 SW 6 9 30.35 1028 10 16 0.00 0.00
3:53 pm 15:53 Sunny 74 23.3 43 6.1 33 33 VRB 6 9 30.31 1026 10 16 0.00 0.00
4:53 pm 16:53 Sunny 73 22.8 43 6.1 34 34 VRB 7 11 30.30 1026 10 16 0.00 0.00
5:53 pm 17:53 Sunny 73 22.8 43 6.1 34 34 SE 7 11 30.28 1025 10 16 0.00 0.00
6:53 pm 18:53 Clear 70 21.1 43 6.1 38 38 S 5 7 30.31 1026 10 16 0.00 0.00
7:53 pm 19:53 Clear 65 18.3 44 6.7 47 47 Calm 30.31 1026 10 16 0.00 0.00
8:53 pm 20:53 Clear 61 16.1 46 7.8 58 58 Calm 30.33 1027 10 16 0.00 0.00
9:53 pm 21:53 Clear 55 12.8 45 7.2 69 69 Calm 30.33 1027 10 16 0.00 0.00
10:53 pm 22:53 Clear 56 13.3 46 7.8 70 70 Calm 30.33 1027 10 16 0.00 0.00
11:53 pm 23:53 Clear 52 11.1 46 7.8 80 80 Calm 30.32 1027 10 16 0.00 0.00

Powered by AerisWeather